Simultaneous Nadir Overpasses (SNOs) Predictions

Prediction of SNOs between METOP-C and LANDSAT-8 Satellite Orbit:

Table of predicted SNOs for the next 14.0 days since TLE Epoch: 1/25/2020
Index Date (METOP-C) Time (METOP-C) Lat,Lon (METOP-C) SZA (METOP-C ) Date (LANDSAT-8) Time (LANDSAT-8) Lat,Lon (LANDSAT-8) SZA (LANDSAT-8 ) Distance(km) Time Diff (sec)
1 01/26/2020 23:04:45 -81.07, 52.78 78.70 01/26/2020 23:04:48 -81.07, 52.81 78.69 0.58 3
2 01/26/2020 23:55:22 81.10,-139.03 101.40 01/26/2020 23:54:13 81.10,-139.15 101.36 1.92 69
3 01/29/2020 18:38:34 -81.07, 119.17 79.46 01/29/2020 18:39:03 -81.06, 119.01 79.47 2.89 29
4 01/29/2020 19:29:12 81.08, -73.08 100.59 01/29/2020 19:28:28 81.08, -72.97 100.58 1.82 44
5 02/01/2020 14:12:22 -81.06,-174.44 80.26 02/01/2020 14:13:16 -81.06,-174.46 80.24 0.59 54
6 02/01/2020 15:02:59 81.09, -6.36 99.82 02/01/2020 15:02:41 81.09, -6.46 99.80 1.67 18
7 02/04/2020 10:36:49 81.07, 59.61 98.93 02/04/2020 10:36:56 81.07, 59.67 98.94 1.07 7
8 02/04/2020 11:27:29 -81.09,-132.38 81.01 02/04/2020 11:26:22 -81.09,-132.29 81.02 1.54 67
9 02/07/2020 06:10:39 81.04, 125.58 98.00 02/07/2020 06:11:11 81.04, 125.77 98.03 3.25 32




NCC Satellite Simultaneous Nadir Overpasses (SNOs) Prediction Service
